CST,Max TemperatureF,Mean TemperatureF,Min TemperatureF,Max Dew PointF,MeanDew PointF,Min DewpointF,Max Humidity, Mean Humidity, Min Humidity, Max Sea Level PressureIn, Mean Sea Level PressureIn, Min Sea Level PressureIn, Max VisibilityMiles, Mean VisibilityMiles, Min VisibilityMiles, Max Wind SpeedMPH, Mean Wind SpeedMPH, Max Gust SpeedMPH,PrecipitationIn, CloudCover, Events, WindDirDegrees
2012-11-1,67,53,39,42,37,32,85,58,31,30.08,30.00,29.94,10,6,1,12,4,15,0.00,0,,231
2012-11-2,70,58,46,45,41,36,80,57,33,30.04,29.98,29.92,10,10,8,18,7,22,0.00,0,,41
2012-11-3,80,63,45,59,45,36,76,56,36,30.14,30.00,29.94,10,10,9,21,8,26,0.00,0,,348
2012-11-4,57,48,39,38,36,34,85,63,40,30.24,30.18,30.14,10,10,6,13,5,16,0.00,0,,40
2012-11-5,50,45,40,45,41,35,93,80,66,30.14,30.07,30.00,10,9,6,12,5,14,0.10,6,Rain,75
2012-11-6,53,47,41,45,42,40,92,79,66,30.10,30.04,29.99,10,8,4,13,4,17,T,6,Rain,325
2012-11-7,58,47,36,42,35,32,89,64,39,30.19,30.08,30.00,10,10,10,17,7,25,0.00,3,,324
2012-11-8,60,46,32,39,35,30,96,69,42,30.29,30.21,30.14,10,9,6,12,3,15,0.00,0,,171
2012-11-9,73,57,40,53,44,37,82,65,48,30.19,30.12,30.05,10,10,10,25,8,29,0.00,0,,193
2012-11-10,74,61,48,57,50,42,93,70,47,30.19,30.11,30.05,10,10,10,21,10,28,0.00,2,,179
2012-11-11,75,64,52,61,55,50,93,73,53,30.10,30.01,29.89,10,6,1,31,15,45,1.06,7,Rain,226
2012-11-12,52,44,35,50,35,23,96,66,36,30.49,30.31,30.09,10,9,2,21,7,28,T,3,Rain,299
2012-11-13,52,43,34,33,27,24,82,59,36,30.54,30.48,30.43,10,10,10,13,5,15,0.00,0,,36
2012-11-14,52,45,37,32,29,26,76,57,38,30.47,30.40,30.35,10,10,10,14,7,18,0.00,0,,35
2012-11-15,53,42,31,36,32,28,92,69,46,30.40,30.35,30.32,10,10,10,9,3,12,0.00,0,,55
2012-11-16,58,47,35,35,31,24,75,52,28,30.46,30.41,30.37,10,10,10,14,6,16,0.00,0,,38
2012-11-17,60,48,36,37,33,29,85,59,33,30.49,30.42,30.38,10,10,10,12,5,14,0.00,0,,44
2012-11-18,63,48,33,41,35,30,89,62,34,30.41,30.36,30.32,10,10,9,8,1,12,0.00,0,,122
2012-11-19,63,50,37,45,40,34,92,68,43,30.32,30.25,30.17,10,10,8,12,2,18,0.00,3,,235
2012-11-20,71,60,48,52,46,43,77,62,47,30.17,30.13,30.05,10,10,10,14,6,17,0.00,2,,280
2012-11-21,66,55,43,49,45,41,92,69,45,30.29,30.22,30.18,10,8,2,9,3,10,0.00,0,,35
2012-11-22,68,53,37,51,41,36,100,74,48,30.20,30.17,30.09,10,4,0,18,6,24,0.00,2,Fog,202
2012-11-23,61,56,50,55,37,22,93,66,38,30.38,30.25,30.12,10,10,5,17,11,26,0.31,2,Rain,316
2012-11-24,47,39,30,28,22,18,82,60,37,30.41,30.30,30.15,10,10,10,16,3,29,0.00,0,,325
2012-11-25,57,44,30,35,31,25,85,63,40,30.13,30.05,29.96,10,10,10,20,7,26,0.00,0,,191
2012-11-26,50,44,37,47,40,32,93,80,66,30.28,30.10,30.03,10,7,1,22,6,31,T,7,Rain,32
2012-11-27,48,39,30,31,28,24,92,71,50,30.42,30.36,30.30,10,10,8,15,6,22,0.00,1,,28
2012-11-28,52,40,27,35,30,25,92,69,46,30.50,30.42,30.36,10,8,4,8,1,10,0.00,0,,189
2012-11-29,58,44,30,35,31,28,92,64,36,30.37,30.29,30.22,10,10,9,18,5,22,0.00,0,,178
2012-11-30,63,49,34,49,41,29,77,66,55,30.25,30.20,30.16,10,10,10,17,6,26,0.00,4,,191